User: anonymous   Login
Location: Bishausen
(51.6334°N, 9.9631°E)
Time: 21:32:39
(UTC+00:00)
Language:

Geosat - Orbit

View from above orbital plane
View from above orbital plane
View from above satellite
View from above satellite

Ground track
Ground track

The orbit data is extracted from the following two-line orbital elements,

1 15595U 85021A   24206.37993150  .00000522  00000-0  21243-3 0  9996
2 15595 108.0581  79.7953 0001789 253.4830 106.6115 14.39068490 63069
Epoch (UTC): 24 July 2024 09:07:06
Eccentricity: 0.0001789
inclination: 108.0581°
perigee height: 760 km
apogee height: 763 km
right ascension of ascending node: 79.7953°
argument of perigee: 253.4830°
revolutions per day: 14.39068490
mean anomaly at epoch: 106.6115°
orbit number at epoch: 6306

The dashed part of the orbit path shows where the satellite is in the earth's shadow,  

DLR